Weather History for Tanana, AK

Change the Weather History Date:

Friday, May 16, 2014

  Actual Average Record
Temperature  
Mean Temperature 50 °F -  
Max Temperature 66 °F 57 °F 76 °F (1993)
Min Temperature 37 °F 32 °F 20 °F (1992)
Degree Days  
Heating Degree Days 15    
Moisture  
Dew Point 36 °F    
Average Humidity 55    
Maximum Humidity 79    
Minimum Humidity 38    
Precipitation  
Precipitation 0.00 in - - ()
Sea Level Pressure  
Sea Level Pressure 30.22 in    
Wind  
Wind Speed 4 mph (WNW)    
Max Wind Speed 8 mph    
Max Gust Speed -    
Visibility 10 miles    
Events      
Averages and records for this station are not official NWS values.
T = Trace of Precipitation, MM = Missing Value Source: NWS Daily Summary

Daily Weather History Graph

Daily Weather History Graph

Search for Another Location

Airport:

Trip Planner

Search our weather history database for the weather conditions in past years. The results will help you decide how hot, cold, wet, or windy it might be!

Date:

Astronomy

May. 16, 2014 Rise Set
Actual Time 4:37 AM AKDT 11:35 PM AKDT
Civil Twilight 2:37 AM AKDT 1:32 AM AKDT
Nautical Twilight Sun does not rise Sun does not rise
Astronomical Twilight Sun does not rise Sun does not rise
Moon 12:46 AM AKDT (5/16) 6:32 AM AKDT (5/16)
Length of Visible Light 22h 55m
Length of Day
18h 58m
Waning Gibbous, 95% of the Moon is Illuminated
May 16
Waning Gibbous
May 21
Last Quarter
May 28
New
Jun 5
First Quarter
Jun 12
Full

Hourly Weather History & Observations

Time (AKDT) Temp. Windchill Dew Point Humidity Pressure Visibility Wind Dir Wind Speed Gust Speed Precip Events Conditions
12:52 AM 51.1 °F - 35.1 °F 54% 30.25 in 10.0 mi NW 4.6 mph - N/A   Overcast
1:52 AM 52.0 °F - 33.1 °F 49% 30.25 in 10.0 mi Calm Calm - N/A   Overcast
2:52 AM 45.0 °F - 34.0 °F 65% 30.25 in 10.0 mi Calm Calm - N/A   Scattered Clouds
3:52 AM 37.9 °F 34.4 °F 30.9 °F 76% 30.25 in 10.0 mi NW 4.6 mph - N/A   Clear
4:52 AM 37.0 °F - 30.9 °F 79% 30.25 in 10.0 mi Calm Calm - N/A   Clear
5:52 AM 37.9 °F 35.5 °F 30.9 °F 76% 30.26 in 10.0 mi NW 3.5 mph - N/A   Mostly Cloudy
6:52 AM 42.1 °F - 35.1 °F 76% 30.26 in 10.0 mi Calm Calm - N/A   Mostly Cloudy
7:52 AM 46.0 °F - 36.0 °F 68% 30.27 in 10.0 mi Calm Calm - N/A   Mostly Cloudy
8:52 AM 50.0 °F - 36.0 °F 59% 30.27 in 10.0 mi West 3.5 mph - N/A   Mostly Cloudy
9:52 AM 52.0 °F - 36.0 °F 54% 30.26 in 10.0 mi WSW 8.1 mph - N/A   Mostly Cloudy
10:52 AM 54.0 °F - 37.9 °F 55% 30.26 in 10.0 mi WSW 6.9 mph - N/A   Scattered Clouds
12:52 PM 57.9 °F - 37.9 °F 47% 30.24 in 10.0 mi WSW 5.8 mph - N/A   Mostly Cloudy
1:52 PM 59.0 °F - 37.9 °F 46% 30.23 in 10.0 mi WSW 6.9 mph - N/A   Mostly Cloudy
2:52 PM 59.0 °F - 37.9 °F 46% 30.22 in 10.0 mi WSW 5.8 mph - N/A   Mostly Cloudy
3:52 PM 61.0 °F - 36.0 °F 39% 30.21 in 10.0 mi WSW 5.8 mph - N/A   Mostly Cloudy
4:52 PM 60.1 °F - 37.0 °F 42% 30.20 in 10.0 mi West 4.6 mph - N/A   Mostly Cloudy
5:52 PM 60.1 °F - 37.9 °F 44% 30.19 in 10.0 mi West 5.8 mph - N/A   Mostly Cloudy
6:52 PM 61.0 °F - 37.0 °F 41% 30.17 in 10.0 mi WSW 3.5 mph - N/A   Mostly Cloudy
7:52 PM 63.0 °F - 37.0 °F 38% 30.16 in 10.0 mi NW 8.1 mph - N/A   Mostly Cloudy
8:52 PM 61.0 °F - 37.9 °F 42% 30.16 in 10.0 mi NNW 8.1 mph - N/A   Mostly Cloudy
9:52 PM 57.9 °F - 39.0 °F 49% 30.16 in 10.0 mi North 6.9 mph - N/A   Clear
10:52 PM 54.0 °F - 39.0 °F 57% 30.15 in 10.0 mi Calm Calm - N/A   Clear
11:52 PM 48.0 °F - 37.9 °F 68% 30.15 in 10.0 mi NNW 6.9 mph - N/A   Clear